owner,sensor,date,latitude,longitude,vertical_datum,sea_water_practical_salinity,qcFlag 
ENP,ioos.station.NOAA.NDBC:LMDF1:1,2016-10-01T00:00:00Z,25.1760,-80.6330,1.5,14.33,1111122 
ENP,ioos.station.NOAA.NDBC:LMDF1:1,2016-10-01T01:00:00Z,25.1760,-80.6330,1.5,20.26,1111122 
ENP,ioos.station.NOAA.NDBC:LMDF1:1,2016-10-01T02:00:00Z,25.1760,-80.6330,1.5,20.92,1111122 
ENP,ioos.station.NOAA.NDBC:LMDF1:1,2016-10-01T04:00:00Z,25.1760,-80.6330,1.5,21.44,1111122 
ENP,ioos.station.NOAA.NDBC:LMDF1:1,2016-10-01T05:00:00Z,25.1760,-80.6330,1.5,21.43,1111122 
ENP,ioos.station.NOAA.NDBC:LMDF1:1,2016-10-01T07:00:00Z,25.1760,-80.6330,1.5,21.44,1111122 
ENP,ioos.station.NOAA.NDBC:LMDF1:1,2016-10-01T08:00:00Z,25.1760,-80.6330,1.5,17.92,1111122 
ENP,ioos.station.NOAA.NDBC:LMDF1:1,2016-10-01T09:00:00Z,25.1760,-80.6330,1.5,21.29,1111122 
ENP,ioos.station.NOAA.NDBC:LMDF1:1,2016-10-01T10:00:00Z,25.1760,-80.6330,1.5,22.03,1111122 
ENP,ioos.station.NOAA.NDBC:LMDF1:1,2016-10-01T11:00:00Z,25.1760,-80.6330,1.5,20.66,1111122 
ENP,ioos.station.NOAA.NDBC:LMDF1:1,2016-10-01T12:00:00Z,25.1760,-80.6330,1.5,21.82,1111122 
ENP,ioos.station.NOAA.NDBC:LMDF1:1,2016-10-01T13:00:00Z,25.1760,-80.6330,1.5,22.01,1111122 
ENP,ioos.station.NOAA.NDBC:LMDF1:1,2016-10-01T14:00:00Z,25.1760,-80.6330,1.5,15.09,1111122 
ENP,ioos.station.NOAA.NDBC:LMDF1:1,2016-10-01T15:00:00Z,25.1760,-80.6330,1.5,20.7,1111122 
ENP,ioos.station.NOAA.NDBC:LMDF1:1,2016-10-01T16:00:00Z,25.1760,-80.6330,1.5,21.37,1111122 
ENP,ioos.station.NOAA.NDBC:LMDF1:1,2016-10-01T17:00:00Z,25.1760,-80.6330,1.5,20.02,1111122 
ENP,ioos.station.NOAA.NDBC:LMDF1:1,2016-10-01T18:00:00Z,25.1760,-80.6330,1.5,21.14,1111122 
ENP,ioos.station.NOAA.NDBC:LMDF1:1,2016-10-01T19:00:00Z,25.1760,-80.6330,1.5,20.41,1111122 
ENP,ioos.station.NOAA.NDBC:LMDF1:1,2016-10-01T20:00:00Z,25.1760,-80.6330,1.5,16.23,1111122 
ENP,ioos.station.NOAA.NDBC:LMDF1:1,2016-10-01T21:00:00Z,25.1760,-80.6330,1.5,19.11,1111122 
ENP,ioos.station.NOAA.NDBC:LMDF1:1,2016-10-01T22:00:00Z,25.1760,-80.6330,1.5,20.41,1111122 
ENP,ioos.station.NOAA.NDBC:LMDF1:1,2016-10-01T23:00:00Z,25.1760,-80.6330,1.5,20.54,1111122 
ENP,ioos.station.NOAA.NDBC:LMDF1:1,2016-10-02T00:00:00Z,25.1760,-80.6330,1.5,15.24,1111122 
ENP,ioos.station.NOAA.NDBC:LMDF1:1,2016-10-02T01:00:00Z,25.1760,-80.6330,1.5,19.43,1111122 
ENP,ioos.station.NOAA.NDBC:LMDF1:1,2016-10-02T04:00:00Z,25.1760,-80.6330,1.5,19.83,1111122 
ENP,ioos.station.NOAA.NDBC:LMDF1:1,2016-10-02T05:00:00Z,25.1760,-80.6330,1.5,19.52,1111122 
ENP,ioos.station.NOAA.NDBC:LMDF1:1,2016-10-02T07:00:00Z,25.1760,-80.6330,1.5,19.24,1111122 
ENP,ioos.station.NOAA.NDBC:LMDF1:1,2016-10-02T08:00:00Z,25.1760,-80.6330,1.5,19.45,1111122 
ENP,ioos.station.NOAA.NDBC:LMDF1:1,2016-10-02T09:00:00Z,25.1760,-80.6330,1.5,19.38,1111122 
ENP,ioos.station.NOAA.NDBC:LMDF1:1,2016-10-02T10:00:00Z,25.1760,-80.6330,1.5,19.62,1111122 
ENP,ioos.station.NOAA.NDBC:LMDF1:1,2016-10-02T12:00:00Z,25.1760,-80.6330,1.5,17.87,1111122 
ENP,ioos.station.NOAA.NDBC:LMDF1:1,2016-10-02T13:00:00Z,25.1760,-80.6330,1.5,19.6,1111122 
ENP,ioos.station.NOAA.NDBC:LMDF1:1,2016-10-02T14:00:00Z,25.1760,-80.6330,1.5,20.39,1111122 
ENP,ioos.station.NOAA.NDBC:LMDF1:1,2016-10-02T15:00:00Z,25.1760,-80.6330,1.5,19.25,1111122 
ENP,ioos.station.NOAA.NDBC:LMDF1:1,2016-10-02T16:00:00Z,25.1760,-80.6330,1.5,18.54,1111122 
ENP,ioos.station.NOAA.NDBC:LMDF1:1,2016-10-02T17:00:00Z,25.1760,-80.6330,1.5,16.92,1111122 
ENP,ioos.station.NOAA.NDBC:LMDF1:1,2016-10-02T18:00:00Z,25.1760,-80.6330,1.5,18.71,1111122 
ENP,ioos.station.NOAA.NDBC:LMDF1:1,2016-10-02T19:00:00Z,25.1760,-80.6330,1.5,18.93,1111122 
ENP,ioos.station.NOAA.NDBC:LMDF1:1,2016-10-02T20:00:00Z,25.1760,-80.6330,1.5,18.36,1111122 
ENP,ioos.station.NOAA.NDBC:LMDF1:1,2016-10-02T21:00:00Z,25.1760,-80.6330,1.5,18.82,1111122 
ENP,ioos.station.NOAA.NDBC:LMDF1:1,2016-10-02T22:00:00Z,25.1760,-80.6330,1.5,19.34,1111122 
ENP,ioos.station.NOAA.NDBC:LMDF1:1,2016-10-02T23:00:00Z,25.1760,-80.6330,1.5,16.45,1111122 
ENP,ioos.station.NOAA.NDBC:LMDF1:1,2016-10-03T00:00:00Z,25.1760,-80.6330,1.5,19.19,1111122 
ENP,ioos.station.NOAA.NDBC:LMDF1:1,2016-10-03T01:00:00Z,25.1760,-80.6330,1.5,20.07,1111122 
ENP,ioos.station.NOAA.NDBC:LMDF1:1,2016-10-03T02:00:00Z,25.1760,-80.6330,1.5,20.44,1111122 
ENP,ioos.station.NOAA.NDBC:LMDF1:1,2016-10-03T04:00:00Z,25.1760,-80.6330,1.5,17.84,1111122 
ENP,ioos.station.NOAA.NDBC:LMDF1:1,2016-10-03T05:00:00Z,25.1760,-80.6330,1.5,19.16,1111122 
ENP,ioos.station.NOAA.NDBC:LMDF1:1,2016-10-03T07:00:00Z,25.1760,-80.6330,1.5,20.39,1111122 
ENP,ioos.station.NOAA.NDBC:LMDF1:1,2016-10-03T08:00:00Z,25.1760,-80.6330,1.5,20.76,1111122 
ENP,ioos.station.NOAA.NDBC:LMDF1:1,2016-10-03T09:00:00Z,25.1760,-80.6330,1.5,17.35,1111122 
ENP,ioos.station.NOAA.NDBC:LMDF1:1,2016-10-03T11:00:00Z,25.1760,-80.6330,1.5,20.03,1111122 
ENP,ioos.station.NOAA.NDBC:LMDF1:1,2016-10-03T12:00:00Z,25.1760,-80.6330,1.5,20.5,1111122 
ENP,ioos.station.NOAA.NDBC:LMDF1:1,2016-10-03T13:00:00Z,25.1760,-80.6330,1.5,20.56,1111122 
ENP,ioos.station.NOAA.NDBC:LMDF1:1,2016-10-03T14:00:00Z,25.1760,-80.6330,1.5,20.83,1111122 
ENP,ioos.station.NOAA.NDBC:LMDF1:1,2016-10-03T15:00:00Z,25.1760,-80.6330,1.5,17.38,1111122 
ENP,ioos.station.NOAA.NDBC:LMDF1:1,2016-10-03T16:00:00Z,25.1760,-80.6330,1.5,19.15,1111122 
ENP,ioos.station.NOAA.NDBC:LMDF1:1,2016-10-03T17:00:00Z,25.1760,-80.6330,1.5,19.15,1111122 
ENP,ioos.station.NOAA.NDBC:LMDF1:1,2016-10-03T18:00:00Z,25.1760,-80.6330,1.5,19.46,1111122 
ENP,ioos.station.NOAA.NDBC:LMDF1:1,2016-10-03T19:00:00Z,25.1760,-80.6330,1.5,18.89,1111122 
ENP,ioos.station.NOAA.NDBC:LMDF1:1,2016-10-03T20:00:00Z,25.1760,-80.6330,1.5,19.71,1111122 
ENP,ioos.station.NOAA.NDBC:LMDF1:1,2016-10-03T21:00:00Z,25.1760,-80.6330,1.5,19.85,1111122 
ENP,ioos.station.NOAA.NDBC:LMDF1:1,2016-10-03T22:00:00Z,25.1760,-80.6330,1.5,19.71,1111122 
ENP,ioos.station.NOAA.NDBC:LMDF1:1,2016-10-03T23:00:00Z,25.1760,-80.6330,1.5,20.04,1111122 
ENP,ioos.station.NOAA.NDBC:LMDF1:1,2016-10-04T00:00:00Z,25.1760,-80.6330,1.5,18.94,1111122 
ENP,ioos.station.NOAA.NDBC:LMDF1:1,2016-10-04T01:00:00Z,25.1760,-80.6330,1.5,19.91,1111122 
ENP,ioos.station.NOAA.NDBC:LMDF1:1,2016-10-04T02:00:00Z,25.1760,-80.6330,1.5,20.43,1111122 
ENP,ioos.station.NOAA.NDBC:LMDF1:1,2016-10-04T04:00:00Z,25.1760,-80.6330,1.5,20.63,1111122 
ENP,ioos.station.NOAA.NDBC:LMDF1:1,2016-10-04T05:00:00Z,25.1760,-80.6330,1.5,19.73,1111122 
ENP,ioos.station.NOAA.NDBC:LMDF1:1,2016-10-04T07:00:00Z,25.1760,-80.6330,1.5,19.48,1111122 
ENP,ioos.station.NOAA.NDBC:LMDF1:1,2016-10-04T08:00:00Z,25.1760,-80.6330,1.5,19.41,1111122 
ENP,ioos.station.NOAA.NDBC:LMDF1:1,2016-10-04T09:00:00Z,25.1760,-80.6330,1.5,19.23,1111122 
ENP,ioos.station.NOAA.NDBC:LMDF1:1,2016-10-04T10:00:00Z,25.1760,-80.6330,1.5,19.25,1111122 
ENP,ioos.station.NOAA.NDBC:LMDF1:1,2016-10-04T11:00:00Z,25.1760,-80.6330,1.5,19.3,1111122 
ENP,ioos.station.NOAA.NDBC:LMDF1:1,2016-10-04T12:00:00Z,25.1760,-80.6330,1.5,19.72,1111122 
ENP,ioos.station.NOAA.NDBC:LMDF1:1,2016-10-04T13:00:00Z,25.1760,-80.6330,1.5,19.79,1111122 
ENP,ioos.station.NOAA.NDBC:LMDF1:1,2016-10-04T14:00:00Z,25.1760,-80.6330,1.5,20.04,1111122 
ENP,ioos.station.NOAA.NDBC:LMDF1:1,2016-10-04T15:00:00Z,25.1760,-80.6330,1.5,20.1,1111122 
ENP,ioos.station.NOAA.NDBC:LMDF1:1,2016-10-04T16:00:00Z,25.1760,-80.6330,1.5,20.19,1111122 
ENP,ioos.station.NOAA.NDBC:LMDF1:1,2016-10-04T17:00:00Z,25.1760,-80.6330,1.5,20.08,1111122 
ENP,ioos.station.NOAA.NDBC:LMDF1:1,2016-10-04T18:00:00Z,25.1760,-80.6330,1.5,19.23,1111122 
ENP,ioos.station.NOAA.NDBC:LMDF1:1,2016-10-04T19:00:00Z,25.1760,-80.6330,1.5,19.32,1111122 
ENP,ioos.station.NOAA.NDBC:LMDF1:1,2016-10-04T20:00:00Z,25.1760,-80.6330,1.5,19.58,1111122 
ENP,ioos.station.NOAA.NDBC:LMDF1:1,2016-10-04T21:00:00Z,25.1760,-80.6330,1.5,19.82,1111122 
ENP,ioos.station.NOAA.NDBC:LMDF1:1,2016-10-04T22:00:00Z,25.1760,-80.6330,1.5,19.95,1111122 
ENP,ioos.station.NOAA.NDBC:LMDF1:1,2016-10-04T23:00:00Z,25.1760,-80.6330,1.5,19.48,1111122 
ENP,ioos.station.NOAA.NDBC:LMDF1:1,2016-10-05T00:00:00Z,25.1760,-80.6330,1.5,19.71,1111122 
ENP,ioos.station.NOAA.NDBC:LMDF1:1,2016-10-05T01:00:00Z,25.1760,-80.6330,1.5,19.99,1111122 
ENP,ioos.station.NOAA.NDBC:LMDF1:1,2016-10-05T02:00:00Z,25.1760,-80.6330,1.5,20.07,1111122 
ENP,ioos.station.NOAA.NDBC:LMDF1:1,2016-10-05T04:00:00Z,25.1760,-80.6330,1.5,20.3,1111122 
ENP,ioos.station.NOAA.NDBC:LMDF1:1,2016-10-05T05:00:00Z,25.1760,-80.6330,1.5,20.36,1111122 
ENP,ioos.station.NOAA.NDBC:LMDF1:1,2016-10-05T07:00:00Z,25.1760,-80.6330,1.5,20.38,1111122 
ENP,ioos.station.NOAA.NDBC:LMDF1:1,2016-10-05T08:00:00Z,25.1760,-80.6330,1.5,20.41,1111122 
ENP,ioos.station.NOAA.NDBC:LMDF1:1,2016-10-05T09:00:00Z,25.1760,-80.6330,1.5,20.48,1111122 
ENP,ioos.station.NOAA.NDBC:LMDF1:1,2016-10-05T11:00:00Z,25.1760,-80.6330,1.5,18.8,1111122 
ENP,ioos.station.NOAA.NDBC:LMDF1:1,2016-10-05T12:00:00Z,25.1760,-80.6330,1.5,19.72,1111122 
ENP,ioos.station.NOAA.NDBC:LMDF1:1,2016-10-05T13:00:00Z,25.1760,-80.6330,1.5,20.55,1111122 
ENP,ioos.station.NOAA.NDBC:LMDF1:1,2016-10-05T14:00:00Z,25.1760,-80.6330,1.5,21.14,1111122 
ENP,ioos.station.NOAA.NDBC:LMDF1:1,2016-10-05T15:00:00Z,25.1760,-80.6330,1.5,21.3,1111122 
ENP,ioos.station.NOAA.NDBC:LMDF1:1,2016-10-05T16:00:00Z,25.1760,-80.6330,1.5,21.45,1111122 
ENP,ioos.station.NOAA.NDBC:LMDF1:1,2016-10-05T17:00:00Z,25.1760,-80.6330,1.5,21.5,1111122 
ENP,ioos.station.NOAA.NDBC:LMDF1:1,2016-10-05T18:00:00Z,25.1760,-80.6330,1.5,18.16,1111122 
ENP,ioos.station.NOAA.NDBC:LMDF1:1,2016-10-05T19:00:00Z,25.1760,-80.6330,1.5,18.95,1111122 
ENP,ioos.station.NOAA.NDBC:LMDF1:1,2016-10-05T20:00:00Z,25.1760,-80.6330,1.5,19.24,1111122 
ENP,ioos.station.NOAA.NDBC:LMDF1:1,2016-10-05T21:00:00Z,25.1760,-80.6330,1.5,15.9,1111122 
ENP,ioos.station.NOAA.NDBC:LMDF1:1,2016-10-05T22:00:00Z,25.1760,-80.6330,1.5,18.49,1111122 
ENP,ioos.station.NOAA.NDBC:LMDF1:1,2016-10-05T23:00:00Z,25.1760,-80.6330,1.5,16.84,1111122 
ENP,ioos.station.NOAA.NDBC:LMDF1:1,2016-10-06T00:00:00Z,25.1760,-80.6330,1.5,16.96,1111122 
ENP,ioos.station.NOAA.NDBC:LMDF1:1,2016-10-06T01:00:00Z,25.1760,-80.6330,1.5,19.57,1111122 
ENP,ioos.station.NOAA.NDBC:LMDF1:1,2016-10-06T04:00:00Z,25.1760,-80.6330,1.5,20.14,1111122 
ENP,ioos.station.NOAA.NDBC:LMDF1:1,2016-10-06T07:00:00Z,25.1760,-80.6330,1.5,19.47,1111122 
ENP,ioos.station.NOAA.NDBC:LMDF1:1,2016-10-06T08:00:00Z,25.1760,-80.6330,1.5,20.65,1111122 
ENP,ioos.station.NOAA.NDBC:LMDF1:1,2016-10-06T09:00:00Z,25.1760,-80.6330,1.5,21.0,1111122 
ENP,ioos.station.NOAA.NDBC:LMDF1:1,2016-10-06T11:00:00Z,25.1760,-80.6330,1.5,22.06,1111122 
ENP,ioos.station.NOAA.NDBC:LMDF1:1,2016-10-06T12:00:00Z,25.1760,-80.6330,1.5,22.13,1111122 
ENP,ioos.station.NOAA.NDBC:LMDF1:1,2016-10-06T13:00:00Z,25.1760,-80.6330,1.5,20.75,1111122 
ENP,ioos.station.NOAA.NDBC:LMDF1:1,2016-10-06T14:00:00Z,25.1760,-80.6330,1.5,19.16,1111122 
ENP,ioos.station.NOAA.NDBC:LMDF1:1,2016-10-06T15:00:00Z,25.1760,-80.6330,1.5,12.73,1111122 
ENP,ioos.station.NOAA.NDBC:LMDF1:1,2016-10-06T16:00:00Z,25.1760,-80.6330,1.5,15.95,1111122 
ENP,ioos.station.NOAA.NDBC:LMDF1:1,2016-10-06T17:00:00Z,25.1760,-80.6330,1.5,21.8,1111122 
ENP,ioos.station.NOAA.NDBC:LMDF1:1,2016-10-06T18:00:00Z,25.1760,-80.6330,1.5,21.96,1111122 
ENP,ioos.station.NOAA.NDBC:LMDF1:1,2016-10-06T19:00:00Z,25.1760,-80.6330,1.5,19.86,1111122 
ENP,ioos.station.NOAA.NDBC:LMDF1:1,2016-10-06T20:00:00Z,25.1760,-80.6330,1.5,19.82,1111122 
ENP,ioos.station.NOAA.NDBC:LMDF1:1,2016-10-06T21:00:00Z,25.1760,-80.6330,1.5,15.12,1111122 
ENP,ioos.station.NOAA.NDBC:LMDF1:1,2016-10-06T22:00:00Z,25.1760,-80.6330,1.5,16.69,1111122 
ENP,ioos.station.NOAA.NDBC:LMDF1:1,2016-10-06T23:00:00Z,25.1760,-80.6330,1.5,18.36,1111122 
ENP,ioos.station.NOAA.NDBC:LMDF1:1,2016-10-07T00:00:00Z,25.1760,-80.6330,1.5,18.74,1111122 
ENP,ioos.station.NOAA.NDBC:LMDF1:1,2016-10-07T01:00:00Z,25.1760,-80.6330,1.5,19.22,1111122 
ENP,ioos.station.NOAA.NDBC:LMDF1:1,2016-10-07T02:00:00Z,25.1760,-80.6330,1.5,19.49,1111122 
ENP,ioos.station.NOAA.NDBC:LMDF1:1,2016-10-07T04:00:00Z,25.1760,-80.6330,1.5,19.69,1111122 
ENP,ioos.station.NOAA.NDBC:LMDF1:1,2016-10-07T05:00:00Z,25.1760,-80.6330,1.5,19.65,1111122 
ENP,ioos.station.NOAA.NDBC:LMDF1:1,2016-10-07T07:00:00Z,25.1760,-80.6330,1.5,19.81,1111122 
ENP,ioos.station.NOAA.NDBC:LMDF1:1,2016-10-07T08:00:00Z,25.1760,-80.6330,1.5,20.03,1111122 
ENP,ioos.station.NOAA.NDBC:LMDF1:1,2016-10-07T09:00:00Z,25.1760,-80.6330,1.5,20.23,1111122 
ENP,ioos.station.NOAA.NDBC:LMDF1:1,2016-10-07T10:00:00Z,25.1760,-80.6330,1.5,20.53,1111122 
ENP,ioos.station.NOAA.NDBC:LMDF1:1,2016-10-07T11:00:00Z,25.1760,-80.6330,1.5,20.79,1111122 
ENP,ioos.station.NOAA.NDBC:LMDF1:1,2016-10-07T12:00:00Z,25.1760,-80.6330,1.5,20.9,1111122 
ENP,ioos.station.NOAA.NDBC:LMDF1:1,2016-10-07T13:00:00Z,25.1760,-80.6330,1.5,21.02,1111122 
ENP,ioos.station.NOAA.NDBC:LMDF1:1,2016-10-07T14:00:00Z,25.1760,-80.6330,1.5,20.91,1111122 
ENP,ioos.station.NOAA.NDBC:LMDF1:1,2016-10-07T15:00:00Z,25.1760,-80.6330,1.5,20.72,1111122 
ENP,ioos.station.NOAA.NDBC:LMDF1:1,2016-10-07T16:00:00Z,25.1760,-80.6330,1.5,20.71,1111122 
ENP,ioos.station.NOAA.NDBC:LMDF1:1,2016-10-07T18:00:00Z,25.1760,-80.6330,1.5,21.57,1111122 
ENP,ioos.station.NOAA.NDBC:LMDF1:1,2016-10-07T20:00:00Z,25.1760,-80.6330,1.5,21.41,1111122 
ENP,ioos.station.NOAA.NDBC:LMDF1:1,2016-10-07T21:00:00Z,25.1760,-80.6330,1.5,21.14,1111122 
ENP,ioos.station.NOAA.NDBC:LMDF1:1,2016-10-07T22:00:00Z,25.1760,-80.6330,1.5,21.12,1111122 
ENP,ioos.station.NOAA.NDBC:LMDF1:1,2016-10-07T23:00:00Z,25.1760,-80.6330,1.5,21.25,1111122 
ENP,ioos.station.NOAA.NDBC:LMDF1:1,2016-10-08T00:00:00Z,25.1760,-80.6330,1.5,21.23,1111122 
ENP,ioos.station.NOAA.NDBC:LMDF1:1,2016-10-08T01:00:00Z,25.1760,-80.6330,1.5,21.21,1111122 
ENP,ioos.station.NOAA.NDBC:LMDF1:1,2016-10-08T02:00:00Z,25.1760,-80.6330,1.5,21.21,1111122 
ENP,ioos.station.NOAA.NDBC:LMDF1:1,2016-10-08T04:00:00Z,25.1760,-80.6330,1.5,21.17,1111122 
ENP,ioos.station.NOAA.NDBC:LMDF1:1,2016-10-08T05:00:00Z,25.1760,-80.6330,1.5,21.17,1111122 
ENP,ioos.station.NOAA.NDBC:LMDF1:1,2016-10-08T07:00:00Z,25.1760,-80.6330,1.5,21.16,1111122 
ENP,ioos.station.NOAA.NDBC:LMDF1:1,2016-10-08T08:00:00Z,25.1760,-80.6330,1.5,21.18,1111122 
ENP,ioos.station.NOAA.NDBC:LMDF1:1,2016-10-08T09:00:00Z,25.1760,-80.6330,1.5,21.2,1111122 
ENP,ioos.station.NOAA.NDBC:LMDF1:1,2016-10-08T10:00:00Z,25.1760,-80.6330,1.5,21.26,1111122 
ENP,ioos.station.NOAA.NDBC:LMDF1:1,2016-10-08T11:00:00Z,25.1760,-80.6330,1.5,21.46,1111122 
ENP,ioos.station.NOAA.NDBC:LMDF1:1,2016-10-08T12:00:00Z,25.1760,-80.6330,1.5,21.7,1111122 
ENP,ioos.station.NOAA.NDBC:LMDF1:1,2016-10-08T13:00:00Z,25.1760,-80.6330,1.5,21.99,1111122 
ENP,ioos.station.NOAA.NDBC:LMDF1:1,2016-10-08T14:00:00Z,25.1760,-80.6330,1.5,22.28,1111122 
ENP,ioos.station.NOAA.NDBC:LMDF1:1,2016-10-08T15:00:00Z,25.1760,-80.6330,1.5,22.5,1111122 
ENP,ioos.station.NOAA.NDBC:LMDF1:1,2016-10-08T16:00:00Z,25.1760,-80.6330,1.5,22.7,1111122 
ENP,ioos.station.NOAA.NDBC:LMDF1:1,2016-10-08T17:00:00Z,25.1760,-80.6330,1.5,22.47,1111122 
ENP,ioos.station.NOAA.NDBC:LMDF1:1,2016-10-08T18:00:00Z,25.1760,-80.6330,1.5,22.33,1111122 
ENP,ioos.station.NOAA.NDBC:LMDF1:1,2016-10-08T19:00:00Z,25.1760,-80.6330,1.5,22.38,1111122 
ENP,ioos.station.NOAA.NDBC:LMDF1:1,2016-10-08T20:00:00Z,25.1760,-80.6330,1.5,22.65,1111122 
ENP,ioos.station.NOAA.NDBC:LMDF1:1,2016-10-08T21:00:00Z,25.1760,-80.6330,1.5,22.68,1111122 
ENP,ioos.station.NOAA.NDBC:LMDF1:1,2016-10-08T22:00:00Z,25.1760,-80.6330,1.5,22.79,1111122 
ENP,ioos.station.NOAA.NDBC:LMDF1:1,2016-10-08T23:00:00Z,25.1760,-80.6330,1.5,22.86,1111122 
ENP,ioos.station.NOAA.NDBC:LMDF1:1,2016-10-09T00:00:00Z,25.1760,-80.6330,1.5,22.96,1111122 
ENP,ioos.station.NOAA.NDBC:LMDF1:1,2016-10-09T01:00:00Z,25.1760,-80.6330,1.5,23.07,1111122 
ENP,ioos.station.NOAA.NDBC:LMDF1:1,2016-10-09T02:00:00Z,25.1760,-80.6330,1.5,23.2,1111122 
ENP,ioos.station.NOAA.NDBC:LMDF1:1,2016-10-09T04:00:00Z,25.1760,-80.6330,1.5,23.3,1111122 
ENP,ioos.station.NOAA.NDBC:LMDF1:1,2016-10-09T05:00:00Z,25.1760,-80.6330,1.5,23.25,1111122 
ENP,ioos.station.NOAA.NDBC:LMDF1:1,2016-10-09T07:00:00Z,25.1760,-80.6330,1.5,23.44,1111122 
ENP,ioos.station.NOAA.NDBC:LMDF1:1,2016-10-09T08:00:00Z,25.1760,-80.6330,1.5,23.57,1111122 
ENP,ioos.station.NOAA.NDBC:LMDF1:1,2016-10-09T09:00:00Z,25.1760,-80.6330,1.5,23.69,1111122 
ENP,ioos.station.NOAA.NDBC:LMDF1:1,2016-10-09T10:00:00Z,25.1760,-80.6330,1.5,23.77,1111122 
ENP,ioos.station.NOAA.NDBC:LMDF1:1,2016-10-09T12:00:00Z,25.1760,-80.6330,1.5,23.95,1111122 
ENP,ioos.station.NOAA.NDBC:LMDF1:1,2016-10-09T13:00:00Z,25.1760,-80.6330,1.5,21.84,1111122 
ENP,ioos.station.NOAA.NDBC:LMDF1:1,2016-10-09T14:00:00Z,25.1760,-80.6330,1.5,22.86,1111122 
ENP,ioos.station.NOAA.NDBC:LMDF1:1,2016-10-09T15:00:00Z,25.1760,-80.6330,1.5,23.68,1111122 
ENP,ioos.station.NOAA.NDBC:LMDF1:1,2016-10-09T16:00:00Z,25.1760,-80.6330,1.5,23.64,1111122 
ENP,ioos.station.NOAA.NDBC:LMDF1:1,2016-10-09T17:00:00Z,25.1760,-80.6330,1.5,22.91,1111122 
ENP,ioos.station.NOAA.NDBC:LMDF1:1,2016-10-09T18:00:00Z,25.1760,-80.6330,1.5,20.34,1111122 
ENP,ioos.station.NOAA.NDBC:LMDF1:1,2016-10-09T19:00:00Z,25.1760,-80.6330,1.5,24.45,1111122 
ENP,ioos.station.NOAA.NDBC:LMDF1:1,2016-10-09T20:00:00Z,25.1760,-80.6330,1.5,25.06,1111122 
ENP,ioos.station.NOAA.NDBC:LMDF1:1,2016-10-09T21:00:00Z,25.1760,-80.6330,1.5,23.66,1111122 
ENP,ioos.station.NOAA.NDBC:LMDF1:1,2016-10-09T22:00:00Z,25.1760,-80.6330,1.5,23.67,1111122 
ENP,ioos.station.NOAA.NDBC:LMDF1:1,2016-10-09T23:00:00Z,25.1760,-80.6330,1.5,24.14,1111122 
ENP,ioos.station.NOAA.NDBC:LMDF1:1,2016-10-10T00:00:00Z,25.1760,-80.6330,1.5,22.44,1111122 
ENP,ioos.station.NOAA.NDBC:LMDF1:1,2016-10-10T01:00:00Z,25.1760,-80.6330,1.5,23.37,1111122 
ENP,ioos.station.NOAA.NDBC:LMDF1:1,2016-10-10T02:00:00Z,25.1760,-80.6330,1.5,23.88,1111122 
ENP,ioos.station.NOAA.NDBC:LMDF1:1,2016-10-10T04:00:00Z,25.1760,-80.6330,1.5,22.72,1111122 
ENP,ioos.station.NOAA.NDBC:LMDF1:1,2016-10-10T05:00:00Z,25.1760,-80.6330,1.5,22.79,1111122 
ENP,ioos.station.NOAA.NDBC:LMDF1:1,2016-10-10T07:00:00Z,25.1760,-80.6330,1.5,22.51,1111122 
ENP,ioos.station.NOAA.NDBC:LMDF1:1,2016-10-10T08:00:00Z,25.1760,-80.6330,1.5,22.44,1111122 
ENP,ioos.station.NOAA.NDBC:LMDF1:1,2016-10-10T09:00:00Z,25.1760,-80.6330,1.5,22.45,1111122 
ENP,ioos.station.NOAA.NDBC:LMDF1:1,2016-10-10T11:00:00Z,25.1760,-80.6330,1.5,22.62,1111122 
ENP,ioos.station.NOAA.NDBC:LMDF1:1,2016-10-10T12:00:00Z,25.1760,-80.6330,1.5,22.65,1111122 
ENP,ioos.station.NOAA.NDBC:LMDF1:1,2016-10-10T13:00:00Z,25.1760,-80.6330,1.5,22.81,1111122 
ENP,ioos.station.NOAA.NDBC:LMDF1:1,2016-10-10T14:00:00Z,25.1760,-80.6330,1.5,22.9,1111122 
ENP,ioos.station.NOAA.NDBC:LMDF1:1,2016-10-10T15:00:00Z,25.1760,-80.6330,1.5,22.26,1111122 
ENP,ioos.station.NOAA.NDBC:LMDF1:1,2016-10-10T16:00:00Z,25.1760,-80.6330,1.5,23.07,1111122 
ENP,ioos.station.NOAA.NDBC:LMDF1:1,2016-10-10T17:00:00Z,25.1760,-80.6330,1.5,23.41,1111122 
ENP,ioos.station.NOAA.NDBC:LMDF1:1,2016-10-10T18:00:00Z,25.1760,-80.6330,1.5,21.27,1111122 
ENP,ioos.station.NOAA.NDBC:LMDF1:1,2016-10-10T19:00:00Z,25.1760,-80.6330,1.5,20.64,1111122 
ENP,ioos.station.NOAA.NDBC:LMDF1:1,2016-10-10T20:00:00Z,25.1760,-80.6330,1.5,19.71,1111122 
ENP,ioos.station.NOAA.NDBC:LMDF1:1,2016-10-10T21:00:00Z,25.1760,-80.6330,1.5,19.47,1111122 
ENP,ioos.station.NOAA.NDBC:LMDF1:1,2016-10-10T22:00:00Z,25.1760,-80.6330,1.5,22.79,1111122 
ENP,ioos.station.NOAA.NDBC:LMDF1:1,2016-10-10T23:00:00Z,25.1760,-80.6330,1.5,22.81,1111122 
ENP,ioos.station.NOAA.NDBC:LMDF1:1,2016-10-11T00:00:00Z,25.1760,-80.6330,1.5,23.14,1111122 
ENP,ioos.station.NOAA.NDBC:LMDF1:1,2016-10-11T01:00:00Z,25.1760,-80.6330,1.5,23.57,1111122 
ENP,ioos.station.NOAA.NDBC:LMDF1:1,2016-10-11T02:00:00Z,25.1760,-80.6330,1.5,23.61,1111122 
ENP,ioos.station.NOAA.NDBC:LMDF1:1,2016-10-11T04:00:00Z,25.1760,-80.6330,1.5,23.67,1111122 
ENP,ioos.station.NOAA.NDBC:LMDF1:1,2016-10-11T05:00:00Z,25.1760,-80.6330,1.5,23.3,1111122 
ENP,ioos.station.NOAA.NDBC:LMDF1:1,2016-10-11T07:00:00Z,25.1760,-80.6330,1.5,22.52,1111122 
ENP,ioos.station.NOAA.NDBC:LMDF1:1,2016-10-11T08:00:00Z,25.1760,-80.6330,1.5,21.45,1111122 
ENP,ioos.station.NOAA.NDBC:LMDF1:1,2016-10-11T09:00:00Z,25.1760,-80.6330,1.5,22.13,1111122 
ENP,ioos.station.NOAA.NDBC:LMDF1:1,2016-10-11T10:00:00Z,25.1760,-80.6330,1.5,23.02,1111122 
ENP,ioos.station.NOAA.NDBC:LMDF1:1,2016-10-11T11:00:00Z,25.1760,-80.6330,1.5,23.53,1111122 
ENP,ioos.station.NOAA.NDBC:LMDF1:1,2016-10-11T12:00:00Z,25.1760,-80.6330,1.5,23.95,1111122 
ENP,ioos.station.NOAA.NDBC:LMDF1:1,2016-10-11T13:00:00Z,25.1760,-80.6330,1.5,24.06,1111122 
ENP,ioos.station.NOAA.NDBC:LMDF1:1,2016-10-11T14:00:00Z,25.1760,-80.6330,1.5,24.18,1111122 
ENP,ioos.station.NOAA.NDBC:LMDF1:1,2016-10-11T15:00:00Z,25.1760,-80.6330,1.5,22.97,1111122 
ENP,ioos.station.NOAA.NDBC:LMDF1:1,2016-10-11T16:00:00Z,25.1760,-80.6330,1.5,22.77,1111122 
ENP,ioos.station.NOAA.NDBC:LMDF1:1,2016-10-11T17:00:00Z,25.1760,-80.6330,1.5,22.74,1111122 
ENP,ioos.station.NOAA.NDBC:LMDF1:1,2016-10-11T18:00:00Z,25.1760,-80.6330,1.5,22.9,1111122 
ENP,ioos.station.NOAA.NDBC:LMDF1:1,2016-10-11T19:00:00Z,25.1760,-80.6330,1.5,22.25,1111122 
ENP,ioos.station.NOAA.NDBC:LMDF1:1,2016-10-11T20:00:00Z,25.1760,-80.6330,1.5,20.83,1111122 
ENP,ioos.station.NOAA.NDBC:LMDF1:1,2016-10-11T21:00:00Z,25.1760,-80.6330,1.5,20.87,1111122 
ENP,ioos.station.NOAA.NDBC:LMDF1:1,2016-10-11T22:00:00Z,25.1760,-80.6330,1.5,20.34,1111122 
ENP,ioos.station.NOAA.NDBC:LMDF1:1,2016-10-11T23:00:00Z,25.1760,-80.6330,1.5,19.54,1111122 
ENP,ioos.station.NOAA.NDBC:LMDF1:1,2016-10-12T00:00:00Z,25.1760,-80.6330,1.5,19.93,1111122 
ENP,ioos.station.NOAA.NDBC:LMDF1:1,2016-10-12T01:00:00Z,25.1760,-80.6330,1.5,20.7,1111122 
ENP,ioos.station.NOAA.NDBC:LMDF1:1,2016-10-12T04:00:00Z,25.1760,-80.6330,1.5,22.97,1111122 
ENP,ioos.station.NOAA.NDBC:LMDF1:1,2016-10-12T07:00:00Z,25.1760,-80.6330,1.5,23.6,1111122 
ENP,ioos.station.NOAA.NDBC:LMDF1:1,2016-10-12T08:00:00Z,25.1760,-80.6330,1.5,23.62,1111122 
ENP,ioos.station.NOAA.NDBC:LMDF1:1,2016-10-12T09:00:00Z,25.1760,-80.6330,1.5,23.6,1111122 
ENP,ioos.station.NOAA.NDBC:LMDF1:1,2016-10-12T11:00:00Z,25.1760,-80.6330,1.5,23.28,1111122 
ENP,ioos.station.NOAA.NDBC:LMDF1:1,2016-10-12T12:00:00Z,25.1760,-80.6330,1.5,23.39,1111122 
ENP,ioos.station.NOAA.NDBC:LMDF1:1,2016-10-12T13:00:00Z,25.1760,-80.6330,1.5,21.63,1111122 
ENP,ioos.station.NOAA.NDBC:LMDF1:1,2016-10-12T14:00:00Z,25.1760,-80.6330,1.5,22.77,1111122 
ENP,ioos.station.NOAA.NDBC:LMDF1:1,2016-10-12T15:00:00Z,25.1760,-80.6330,1.5,23.43,1111122 
ENP,ioos.station.NOAA.NDBC:LMDF1:1,2016-10-12T16:00:00Z,25.1760,-80.6330,1.5,23.5,1111122 
ENP,ioos.station.NOAA.NDBC:LMDF1:1,2016-10-12T17:00:00Z,25.1760,-80.6330,1.5,23.62,1111122 
ENP,ioos.station.NOAA.NDBC:LMDF1:1,2016-10-12T18:00:00Z,25.1760,-80.6330,1.5,23.71,1111122 
ENP,ioos.station.NOAA.NDBC:LMDF1:1,2016-10-12T19:00:00Z,25.1760,-80.6330,1.5,21.55,1111122 
ENP,ioos.station.NOAA.NDBC:LMDF1:1,2016-10-12T20:00:00Z,25.1760,-80.6330,1.5,22.49,1111122 
ENP,ioos.station.NOAA.NDBC:LMDF1:1,2016-10-12T21:00:00Z,25.1760,-80.6330,1.5,23.27,1111122 
ENP,ioos.station.NOAA.NDBC:LMDF1:1,2016-10-12T22:00:00Z,25.1760,-80.6330,1.5,23.53,1111122 
ENP,ioos.station.NOAA.NDBC:LMDF1:1,2016-10-12T23:00:00Z,25.1760,-80.6330,1.5,23.61,1111122 
ENP,ioos.station.NOAA.NDBC:LMDF1:1,2016-10-13T00:00:00Z,25.1760,-80.6330,1.5,23.17,1111122 
ENP,ioos.station.NOAA.NDBC:LMDF1:1,2016-10-13T01:00:00Z,25.1760,-80.6330,1.5,19.73,1111122 
ENP,ioos.station.NOAA.NDBC:LMDF1:1,2016-10-13T04:00:00Z,25.1760,-80.6330,1.5,21.86,1111122 
ENP,ioos.station.NOAA.NDBC:LMDF1:1,2016-10-13T07:00:00Z,25.1760,-80.6330,1.5,23.37,1111122 
ENP,ioos.station.NOAA.NDBC:LMDF1:1,2016-10-13T08:00:00Z,25.1760,-80.6330,1.5,23.42,1111122 
ENP,ioos.station.NOAA.NDBC:LMDF1:1,2016-10-13T09:00:00Z,25.1760,-80.6330,1.5,23.17,1111122 
ENP,ioos.station.NOAA.NDBC:LMDF1:1,2016-10-13T11:00:00Z,25.1760,-80.6330,1.5,23.11,1111122 
ENP,ioos.station.NOAA.NDBC:LMDF1:1,2016-10-13T12:00:00Z,25.1760,-80.6330,1.5,22.16,1111122 
ENP,ioos.station.NOAA.NDBC:LMDF1:1,2016-10-13T13:00:00Z,25.1760,-80.6330,1.5,22.59,1111122 
ENP,ioos.station.NOAA.NDBC:LMDF1:1,2016-10-13T14:00:00Z,25.1760,-80.6330,1.5,22.97,1111122 